Regional Weather Roundup
Issued by NWS Upton, NY

Current Version | Previous Version | Graphics & Text | Print | Product List | Glossary Off
Versions: 1 2 3 4 5 6 7 8 9 10 11 12 13 14 15 16 17 18 19 20 21 22 23 24 25 26 27

000
ASUS41 KOKX 240204
RWROKX

REGIONAL WEATHER ROUNDUP
NATIONAL WEATHER SERVICE NEW YORK NY
1000 PM EDT MON MAY 23 2016

NOTE: "FAIR" INDICATES FEW OR NO CLOUDS BELOW 12,000 FEET WITH NO
SIGNIFICANT WEATHER AND/OR OBSTRUCTIONS TO VISIBILITY.

NYZ071-072-176-178-NJZ106-104-240300-
NEW YORK CITY METRO AREA


CITY           SKY/WX    TMP DP  RH WIND       PRES   REMARKS
CENTRAL PARK   CLOUDY    64  44  48 SW5       29.93R
LAGUARDIA APRT CLOUDY    66  49  54 SW7       29.90R
KENNEDY INTL   CLOUDY    62  48  60 S7        29.91R
NEWARK/LIBERTY RAIN      63  50  62 S7        29.91R
BRNX BOT. GARD   N/A     63  43  48 S5        29.90F
TETERBORO      CLOUDY    64  44  48 S8        29.90R
$$

NYZ177-179-078>081-240300-
LONG ISLAND NEW YORK

CITY           SKY/WX    TMP DP  RH WIND       PRES   REMARKS
FARMINGDALE    MOCLDY    62  47  57 SW6       29.91R
ISLIP          LGT RAIN  64  45  49 S6        29.91R
SHIRLEY        LGT RAIN  61  50  67 E3        29.93R
RIVERHEAD        N/A     59  52  77 CALM      29.91S
WESTHAMPTON    LGT RAIN  52  52 100 CALM      29.93R
EAST HAMPTON   LGT RAIN  56  54  90 CALM      29.91R
MONTAUK POINT    N/A     56  54  93 CALM      29.92R
$$

NYZ052-065-067-240300-
HUDSON VALLEY

CITY           SKY/WX    TMP DP  RH WIND       PRES   REMARKS
WHITE PLAINS   CLOUDY    61  46  57 SE5       29.91R
NEWBURGH       MOCLDY    64  57  77 S6        29.90R
MONTGOMERY     CLOUDY    65  53  65 S7        29.88R
POUGHKEEPSIE   CLOUDY    66  52  60 S8        29.88R
ALBANY         CLOUDY    67  40  37 N5        29.87R
$$

NJZ001-105-106-008-010-013-015-019>022-104-240300-
NEW JERSEY

CITY           SKY/WX    TMP DP  RH WIND       PRES   REMARKS
NEWARK/LIBERTY RAIN      63  50  62 S7        29.91R
TETERBORO      CLOUDY    64  44  48 S8        29.90R
CALDWELL       CLOUDY    62  52  69 CALM      29.92R
MORRISTOWN     CLOUDY    61  57  88 CALM      29.91R
SOMERVILLE     CLOUDY    59  58  96 CALM      29.89R
SUSSEX         CLOUDY    63  53  70 CALM      29.89R
ANDOVER          N/A     61  55  81 CALM      29.90R
TRENTON        CLOUDY    62  57  83 SE6       29.90R
MILLVILLE      MOCLDY    57  54  89 VRB5      29.93R
ATLANTIC CITY  LGT RAIN  57  52  83 W5        29.93F
WRIGHTSTOWN    CLOUDY    58  51  77 VRB1      29.90R
TOMS RIVER     CLOUDY    57  50  77 S5        29.93R
BELMAR         CLOUDY    62  47  57 SW5       29.94R
$$

PAZ047>061-062-071-240300-
EASTERN PENNSYLVANIA

CITY           SKY/WX    TMP DP  RH WIND       PRES   REMARKS
PHILADELPHIA   CLOUDY    61  55  81 S3        29.93R
ALLENTOWN      CLOUDY    64  57  78 SW5       29.90R
SCRANTON       PTCLDY    59  52  77 VRB5      29.89R
$$

CTZ002-004>006-009-010-012-RIZ004-006-007-MAZ004-011-015-240300-
SOUTHERN NEW ENGLAND
 IN CT

CITY           SKY/WX    TMP DP  RH WIND       PRES   REMARKS
BRADLEY INTL   CLOUDY    67  45  45 SW13      29.89R
HARTFORD       CLOUDY    68  48  48 CALM      29.89R
DANBURY        CLOUDY    63  46  54 CALM      29.92R
WTRBRY/OXFORD    N/A     61  45  55 SW3       29.94R
BRIDGEPORT     CLOUDY    64  51  62 SW5       29.91R
MERIDEN        CLOUDY    64  48  56 CALM      29.91R
NEW HAVEN      CLOUDY    62  49  62 S3        29.91R
CHESTER        DRIZZLE   63  50  63 S6        29.92R
GROTON         LGT RAIN  56  54  93 SW5       29.91R
WILLIMANTIC    CLOUDY    67  45  45 S5        29.90R

 IN RI

CITY           SKY/WX    TMP DP  RH WIND       PRES   REMARKS
PROVIDENCE     CLOUDY    64  50  60 SE3       29.90R
BLOCK ISLAND   LGT RAIN  56  53  90 CALM      29.90R
WESTERLY       LGT RAIN  59  53  80 S5        29.91R

 IN MA

CITY           SKY/WX    TMP DP  RH WIND       PRES   REMARKS
BOSTON         CLOUDY    58  52  80 E7        29.91R
WORCESTER      CLOUDY    65  41  41 SE6       29.92R
WESTFIELD      CLOUDY    68  49  50 S10       29.89R
PROVINCETOWN   CLOUDY    54  51  90 E6        29.91R
NANTUCKET      PTCLDY    53  51  93 NE9       29.86F
$$

ANZ330-335-338-340-345-350-353-355-240300-
COASTAL MARINE OBSERVATIONS


STATION/POSITION TIME  SKY/WX   TEMP    WIND        PRES    VSBY  WAVE
                                AIR SEA DIR/SP/G                  HT/PER
                 (UTC)          (F)     (DEG/KT/KT) (MB)    (MI)  (FT/S)
NY HARB ENTRANCE 0050            59 58  240/  6/  8 1011.8          3/ 8
20S FIRE ISLAND  0050            58 57  290/  4/  6 1012.1          3/ 9
GREAT SOUTH BAY  0100            63 64  270/  4/  4   N/A
23 SSW MONTAUK P 0150            54 55  220/  2/  4 1012.0          3/ 9
15 E BARNEGAT LI 0122               56                N/A           4/ 9
HUDSON CANYON    0050            53 52              1011.5          4/ 9
KINGS POINT      0100            63 59                N/A
EXECUTION ROCKS  NOT AVBL
CENTRAL LI SOUND 0100            62     220/  4/  4   N/A           0
EASTERN LI SOUND 0100            56 53  160/  6/  8   N/A
ROBBINS REEF     NOT AVBL
$$


>>>>>>>>>>>>>>>>>>>>>>>>>>>> KEY <<<<<<<<<<<<<<<<<<<<<<<<<<<
>                                                          <
>     SKY/WX - SKY CONDITION/PRESENT WEATHER               <
>     TMP    - TEMPERATURE IN FAHRENHEIT                   <
>     DP     - DEWPOINT IN FAHRENHEIT                      <
>     RH     - RELATIVE HUMIDITY IN PERCENT                <
>     WIND   - DIRECTION AND SPEED IN MPH                  <
>     PRES   - MEAN SEA LEVEL PRESSURE IN INCHES OF HG     <
>     WCI    - WIND CHILL INDEX                            <
>     VSB    - VISIBILITY IN MILES                         <
>     HX     - HEAT INDEX                                  <
>     TC     - TEMPERATURE IN CELSIUS                      <
>     VRB    - VARIABLE WIND DIRECTION                     <
>                                                          <
>>>>>>>>>>>>>>>>>>>>>>>>>>>> KEY <<<<<<<<<<<<<<<<<<<<<<<<<<<






USA.gov is the U.S. government's official web portal to all federal, state and local government web resources and services.